Regional Weather Roundup
Issued by NWS Wakefield, VA

Home | Current Version | Previous Version | Graphics & Text | Print | Product List | Glossary Off
Versions: 1 2 3 4 5 6 7 8 9 10 11 12 13 14 15 16 17 18 19 20 21 22 23 24 25 26 27 28 29 30 31 32 33 34 35 36 37 38 39 40 41 42 43 44 45 46 47 48 49 50

000
ASUS41 KAKQ 020510
RWRAKQ

REGIONAL WEATHER ROUNDUP
NATIONAL WEATHER SERVICE WAKEFIELD VA
100 AM EDT TUE SEP 02 2014

Note: "fair" indicates few or no clouds below 12,000 feet with no
significant weather and/or obstructions to visibility. * = Denotes
station may not report precipitation (e.g., rain,snow,etc.),
thunder or fog.

VAZ042-051-052>054-056-020600-
NORTHERN VIRGINIA

CITY           SKY/WX    TMP DP  RH WIND       PRES   REMARKS
WASH NATIONAL  MOCLDY    81  73  76 SW7       29.97S
DULLES         PTCLDY    73  72  96 CALM      29.98S
FORT BELVOIR   PTCLDY    73  73 100 CALM      29.97S FOG
QUANTICO       MOCLDY    78  72  81 NW5       29.98S
FREDERICKSBRG* CLEAR     79  71  76 SW6       29.97S
STAFFORD*      CLEAR     77  76  96 W5        30.02S
WARRENTON      NOT AVBL
CULPEPER*      PTCLDY   N/A N/A N/A CALM      30.00S
MANASSAS*      PTCLDY    75  75 100 CALM      29.98S
LEESBURG*      CLEAR     77  77 100 CALM      29.99S
WINCHESTER     CLEAR     77  66  69 SW5       30.00S
$$

VAZ048-049-060>072-079>083-020600-
CENTRAL AND SOUTH CENTRAL VIRGINIA...AND NORTH CENTRAL NORTH CAROLINA

CITY           SKY/WX    TMP DP  RH WIND       PRES   REMARKS
RICHMOND       PTCLDY    78  70  76 S6        30.01R
CHESTERFIELD*  CLEAR     77  63  61 SW3       30.03S
PETERSBURG*    CLEAR     70  68  93 CALM      30.02S
HANOVER        CLEAR     81  70  69 W7        30.01S
TAPPAHANNOCK*  CLEAR     76  68  75 CALM      30.00S
CHARLOTTSVILLE LGT RAIN  77  68  73 CALM      30.02S
ORANGE*        PTCLDY    73  70  88 CALM      30.02S
LOUISA*        PTCLDY    75  70  83 CALM      30.01S
FARMVILLE*     CLEAR     72  72 100 CALM      30.01S
SOUTH HILL*      N/A     73  73 100 CALM      30.09S
ROANOKE RAPIDS CLEAR     73  72  94 SW3       30.04R
RALEIGH        PTCLDY    80  71  74 SW8       30.06R
$$

VAZ088>098-020600-
SOUTHEAST VIRGINIA

CITY           SKY/WX    TMP DP  RH WIND       PRES   REMARKS
NORFOLK        PTCLDY    81  74  79 SW10      30.02R
VIRGINIA BEACH MOCLDY    81  76  84 SW9       30.01S
NORFOLK NAVAL  PTCLDY    82  74  76 S8        30.03R
WEST POINT*    CLEAR     78  71  80 CALM      30.01F
NEWPORT NEWS   CLEAR     83  69  62 SW5       30.01S
LANGLEY AFB    CLEAR     81  72  74 S3        30.01R
FORT EUSTIS    CLEAR     79  69  70 VRB2      29.99S
WILLIAMSBURG*  CLEAR     81  72  74 CALM      30.02R
FRANKLIN*      PTCLDY    79  73  83 SW5       30.03R
WAKEFIELD      CLEAR     77  70  79 S3        30.02S
$$

VAZ020-022-025-037-045-020600-
WESTERN AND SOUTHWEST VIRGINIA

CITY           SKY/WX    TMP DP  RH WIND       PRES   REMARKS
STAUNTON*      MOCLDY    73  64  74 CALM      30.08S
HOT SPRINGS VA PTCLDY    67  60  78 W15       30.22F
LYNCHBURG      CLEAR     69  68  96 CALM      30.07S
DANVILLE       CLEAR     72  68  87 S3        30.05F
MARTINSVILLE   MOCLDY    70  70 100 CALM      30.09F
ROANOKE        PTCLDY    75  65  70 CALM      30.09F
BLACKSBURG     PTCLDY    68  68 100 CALM      30.16S
DUBLIN*        CLEAR     69  67  93 CALM      30.15F
MARION*        PTCLDY   N/A N/A N/A CALM      30.20S
HILLSVILLE*    CLEAR     69  66  88 S5        30.18F
RICHLANDS*     CLEAR     75  67  77 W6        30.17S
WISE*          CLEAR     72  64  78 SW8       30.17F
ABINGDON*      CLEAR     71  68  92 CALM      30.15F
$$

MDZ021>025-VAZ099-100-020600-
SOUTHERN MARYLAND AND THE DELMARVA PENINSULA

CITY           SKY/WX    TMP DP  RH WIND       PRES   REMARKS
PATUXENT RIVER CLEAR     78  72  81 SW7       29.97F
BAY BRIDGE APT   N/A     79  77  94 S5        29.95F
LEONARDTOWN    CLEAR     77  70  78 SW5       29.99S
DOVER          CLEAR     76  75  95 S5        29.95S
GEORGETOWN     CLEAR     75  70  84 S9        29.98S
EASTON         CLEAR     79  78  97 CALM      30.00F
CAMBRIDGE      NOT AVBL
SALISBURY      CLEAR     76  71  85 SW5       29.98F
OCEAN CITY     CLEAR     80  75  84 W9        29.97F
WALLOPS ISLAND CLEAR     79  74  84 W6        29.99S
ACCOMACK*      NOT AVBL
$$

NCZ012>017-030>032-020600-
EASTERN NORTH CAROLINA

CITY           SKY/WX    TMP DP  RH WIND       PRES   REMARKS
ELIZABETH CITY MOCLDY    80  75  84 SW10      30.03F
AHOSKIE*       CLEAR     77  75  92 S3        30.04S
EDENTON*       MOCLDY    81  75  83 SW8       30.05S
CURRITUCK*     MOCLDY    81  73  78 SW6       30.04R
KILL DEVIL HLS MOCLDY    79  76  91 SW6       30.04S
MANTEO         MOCLDY    78  76  92 SW9       30.05S
CAPE HATTERAS  PTCLDY    80  77  90 SW15      30.07S
GOLDSBORO      PTCLDY    78  78  98 VRB6      30.05F
WASHINGTON     PTCLDY    78  74  88 SW7       30.06F
GREENVILLE     PTCLDY    79  75  89 SW8       30.07S
NEW BERN       CLEAR     79  75  87 SW7       30.09S
WILMINGTON     PTCLDY    79  76  90 S6        30.09S
$$

VAZ048-020600-
ELSEWHERE

CITY           SKY/WX    TMP DP  RH WIND       PRES   REMARKS
HARRISBURG PA  PTCLDY    79  72  79 SW5       29.94F
BALTIMORE      MOCLDY    76  71  85 S5        29.95F THUNDER
ANNAPOLIS      MOCLDY    81  73  76 CALM      29.95F
ANDREWS AFB    PTCLDY    78  73  83 SW8       29.97S
WILMINGTON DE  CLEAR     78  74  87 CALM      29.96F
PHILADELPHIA   CLEAR     78  74  87 CALM      29.95F
WILDWOOD NJ*   CLEAR     75  70  83 SW6       29.97F
ATLANTIC CITY  CLEAR     77  73  87 MISG      29.95F
HENDERSON NC   PTCLDY    73  69  89 S5        30.06S
GREENSBORO     PTCLDY    77  68  73 W6        30.08R
ROCKY MOUNT    PTCLDY    80  75  84 S8        30.05S
FAYETTEVILLE   MOCLDY    80  74  81 SW8       30.07S
CHARLOTTE      PTCLDY    71  67  87 CALM      30.09F
$$

VAZ100-020600-
MARINE

STATION/POSITION TIME  TEMP    WIND        PRES    WAVE   SWELL
                       AIR SEA DIR/SP/G            HT/PER HT/PER
                 (UTC) (F)     (DEG/KT/KT) (MB)    (FT/S) (FT/S)
44066 TX TWR #4  0500   75 74  220/ 12/ 14 1014.6S   3/ 5   2/ 9
CAPE MAY NJ      0500   77 81  190/  4/  5 1014.3S
LEWES DE         0500   77 77  220/  5/  7 1014.5F
15NM E FENWICK I 0500   77 75              1014.7F   3/13
OCEAN-CITY-INLET 0500   80 77  270/  9/ 10 1014.6S
WACHAPREAGUE VA  0500   78 83  250/  4/  5 1015.8S
THOMAS POINT MD  0500   80 79  190/  8/  9 1015.3F
GOOSES REEF MD   0500   80     220/  8/ 10 1015.1F
COVE POINT MD    0500   81     240/  9/ 12 1014.7F
SOLOMONS ISLAND  0500      80                N/A
BISHOPS HEAD MD  0500   81 82  230/ 10/ 11 1014.6F
PINEY POINT MD   0500          260/  4/  7   N/A
POTOMAC MD       0500   81     240/ 10/ 10 1014.5F
CAMBRIDGE MD     0500   78 80  200/  2/  4 1014.5F
LEWISETTA VA     0500   80 82  240/  6/  8 1014.9S
RAPPAHANNOCK LGT 0500          220/  6/  7 1016.4R
STINGRAY PT      0500   81     240/  6/  8   N/A
YORK RVR RNG VA  0500   81     210/  5/  6 1015.5S
YORKTOWN VA      0500   80 81  230/  8/ 11 1015.5S
JAMESTOWN VA     0500   77     290/  4/  6   N/A
DOMINION TERM VA 0500   81     220/  7/  9 1016.3S
KIPTOPEKE VA     0500      83  200/  6/  7   N/A
CHES BAY BRIDGE  0500   81 80  190/  8/  8 1015.9S
CAPE HENRY VA    0500   81     200/  7/ 11 1015.2S
CHESAPEAKE LGHT  0400   80     210/ 12/ 12 1017.1R
WILLOUBY STN VA  0500   81     230/ 10/ 11 1015.1R
S CRANEY ISL VA  0500          200/  7/ 11 1016.1R
CAPE HENRY BUOY  0400      80                N/A     3/ 9   2/11
1ST LANDING BUOY 0500   82     210/  8/ 10 1016.0S
CAPE CHARLES BUO 0500      79                N/A     2/ 8   2/ 8
OFFSHORE WE BUOY 0500      79                N/A     3/ 4   2/ 9
64NM E OF VA BCH 0500   79 78  210/ 14/ 17 1016.5S   3/11   2/11
DUCK PIER NC     0500   81 75  210/ 13/ 17 1016.5F
44056 DUCK FRF   0500                        N/A     2/11   2/11
OREGON INLET NC  0500   81 84  210/ 14/ 16 1017.7R
HATTERAS NC      0500   81 84  230/  9/ 16 1018.8R
DIAMOND SHLS NC  0500   82     210/ 17/ 19 1017.7F   4/ 4   2/ 8
CAPE LOOKOUT NC  0400   81     210/  9/ 12 1018.5F
$$



USA.gov is the U.S. government's official web portal to all federal, state and local government web resources and services.